Flag for Kazakhstan Weather past 2 weeks in Karaganda, Kazakhstan

Now
54 °F

Sprinkles. Mostly cloudy.


Feels Like: 52 °F
Forecast: 37 / 60 °F
Wind: 6 mph from North

Location: Karaganda

Current Time: Sep 18, 2014 at 3:50:05 AM

Latest Report: Sep 18, 2014 at 3:00 AM


Visibility: N/A

Pressure: 29.56 "Hg

Humidity: 67%

Dew point: 43 °F

Location of KaragandaLocation

Historic Weather in Karaganda — Graph

°F

Karaganda temperature yesterday

Maximum temperature yesterday: 77 °F (at 1:30 PM)
Minimum temperature yesterday: 30 °F (at 7:00 AM)
Average temperature yesterday: 56 °F

Past Weeks' High & Low Weather Summary

 TemperatureHumidityPressure
High77 °F (Sep 7, 2:00 PM)100% (Sep 16, 12:00 AM)30.39 "Hg (Sep 16, 12:00 AM)
Low19 °F (Sep 12, 4:30 AM)11% (Sep 6, 3:30 PM)29.53 "Hg (Sep 18, 12:30 AM)
Average50 °F54%30.01 "Hg
* Reported Sep 3 2:00 AM — Sep 18 2:30 AM, Karaganda, Weather by CustomWeather, © 2014

Note: Actual official high and low records may vary slightly from our data, if they occured in-between our weather recording intervals... More about our weather records

Advertising

Karaganda weather history for previous 24 hours

 ConditionsComfort  
Time TempWeatherWind HumidityBarometerVisibility
2:30 AM
Sep 18
55 °FLight rain. Clear.6 mph59%29.59 "HgN/A
2:00 AM57 °FPassing clouds.10 mph39%29.59 "HgN/A
1:30 AM61 °FPassing clouds.10 mph29%29.56 "HgN/A
1:00 AM59 °FPassing clouds.8 mph31%29.56 "HgN/A
12:30 AM57 °FClear.8 mph33%29.53 "Hg10 mi
12:00 AM57 °FClear.8 mph31%29.56 "Hg10 mi
11:30 PM
Sep 17
57 °FClear.8 mph31%29.56 "Hg10 mi
11:00 PM57 °FClear.8 mph33%29.56 "Hg10 mi
10:30 PM61 °FClear.8 mph29%29.56 "Hg10 mi
10:00 PM61 °FClear.8 mph29%29.59 "Hg10 mi
9:30 PM59 °FClear.6 mph31%29.59 "Hg10 mi
9:00 PM61 °FClear.8 mph29%29.59 "Hg10 mi
8:30 PM59 °FClear.8 mph29%29.59 "Hg10 mi
8:00 PM61 °FClear.6 mph29%29.59 "Hg10 mi
7:30 PM68 °FClear.6 mph23%29.59 "Hg10 mi
7:00 PM72 °FBroken clouds.10 mph20%29.59 "HgN/A
6:30 PM75 °FPartly sunny.17 mph18%29.59 "HgN/A
6:00 PM75 °FPartly sunny.17 mph18%29.59 "HgN/A
5:30 PM75 °FPartly sunny.17 mph18%29.59 "HgN/A
5:00 PM77 °FPartly sunny.20 mph17%29.59 "HgN/A
4:30 PM75 °FSunny.22 mph21%29.62 "Hg10 mi
4:00 PM75 °FSunny.20 mph18%29.62 "Hg10 mi
3:30 PM75 °FPassing clouds.17 mph18%29.62 "HgN/A
3:00 PM77 °FPassing clouds.20 mph15%29.65 "HgN/A
2:30 PM75 °FPassing clouds.22 mph16%29.65 "HgN/A
2:00 PM77 °FSunny.20 mph15%29.68 "Hg10 mi
1:30 PM77 °FPassing clouds.13 mph18%29.68 "HgN/A
1:00 PM73 °FPassing clouds.10 mph20%29.71 "HgN/A
12:30 PM73 °FPassing clouds.13 mph22%29.71 "HgN/A
12:00 PM72 °FPassing clouds.8 mph25%29.74 "HgN/A
11:30 AM72 °FPassing clouds.8 mph23%29.74 "HgN/A
11:00 AM70 °FPassing clouds.6 mph25%29.77 "HgN/A
10:30 AM66 °FPassing clouds.3 mph28%29.77 "HgN/A
10:00 AM64 °FPassing clouds.3 mph32%29.77 "HgN/A
9:30 AM59 °FSunny.1 mph36%29.77 "Hg10 mi
9:00 AM54 °FPassing clouds.3 mph54%29.80 "HgN/A
8:30 AM48 °FSunny.3 mph58%29.80 "Hg10 mi
8:00 AM39 °FSunny.3 mph75%29.80 "Hg10 mi
7:30 AM34 °FPassing clouds.3 mph87%29.80 "HgN/A
7:00 AM30 °FPassing clouds.3 mph93%29.80 "HgN/A
6:30 AM32 °FClear.6 mph80%29.80 "Hg10 mi
6:00 AM32 °FClear.6 mph87%29.80 "Hg10 mi
5:30 AM32 °FClear.6 mph87%29.80 "Hg10 mi
5:00 AM32 °FClear.1 mph87%29.80 "Hg10 mi
4:30 AM32 °FClear.3 mph93%29.80 "Hg10 mi
4:00 AM32 °FClear.6 mph93%29.80 "Hg10 mi
3:30 AM34 °FClear.3 mph87%29.80 "Hg10 mi
3:00 AM34 °FClear.1 mph87%29.80 "Hg10 mi
Weather by CustomWeather, © 2014

See weather overviewHow to use our weather pages